Location: Unspecified
(0.0000°N, 0.0000°E)
Time: 00:54:06
(UTC+00:00)

Kitsat-3 - Pass Details

Date: 18 May 2026
Orbit: 698 x 715 km, 98.6° (Epoch: 5 June)

Event Time Altitude Azimuth Distance (km) Brightness Sun altitude
Exits shadow 19:04:20 24° 86° (E) 1,444 8.7 -15.9°
Maximum altitude 19:04:47 24° 77° (ENE) 1,431 8.7 -16.0°
Drops below altitude 10° 19:08:32 10° 24° (NNE) 2,150 10.1 -16.9°
Sets 19:11:08 0° 11° (N) 3,066 11.1 -17.5°
